Location: Ravensburg
(48.5621°N, 13.4088°E)
Time: 14:34:40
(UTC+01:00)

ISS - Pass Details

Date: 04 January 2018
Orbit: 402 x 406 km, 51.6° (Epoch: 16 January)

Event Time Altitude Azimuth Distance (km) Brightness Sun altitude
Exits shadow 05:23:14 29° 64° (ENE) 776 -2.0 -24.6°
Drops below altitude 10° 05:25:00 10° 68° (ENE) 1,469 -0.2 -24.3°
Sets 05:27:06 0° 70° (ENE) 2,332 1.0 -24.0°
